Regional Weather Roundup
Issued by NWS

Home | Current Version | Previous Version | Text Only | Print | Product List | Glossary Off
Versions: 1 2 3 4 5 6 7 8 9 10 11 12 13 14 15 16 17 18 19 20 21 22 23 24 25 26 27

000
ASUS45 KPSR 180610
RWRAZ

ARIZONA HOURLY REGIONAL WEATHER ROUNDUP
NATIONAL WEATHER SERVICE PHOENIX AZ
1100 PM MST TUE JAN 17 2017

NOTE: FAIR INDICATES FEW OR NO CLOUDS BELOW 12,000 FEET WITH NO
SIGNIFICANT WEATHER AND/OR OBSTRUCTIONS TO VISIBILITY.

AZZ001>003-036-180700-
NORTHWEST ARIZONA

CITY           SKY/WX    TMP DP  RH WIND       PRES   REMARKS
BULLHEAD CITY  CLEAR     52  28  40 N8        30.14S
KINGMAN        CLEAR     35  20  54 E6        30.15F WCI  30
6HR MIN TEMP:  35; 6HR MAX TEMP:  52;

$$

AZZ004>008-015-016-018-180700-
NORTH CENTRAL ARIZONA

CITY           SKY/WX    TMP DP  RH WIND       PRES   REMARKS
GRAND CANYON   CLEAR     25  23  92 CALM      30.17F
6HR MIN TEMP:  24; 6HR MAX TEMP:  39;

WILLIAMS       CLEAR     28  25  86 S8        30.17R WCI  20
PRESCOTT       CLEAR     33  30  88 S5        30.16R WCI  29
6HR MIN TEMP:  33; 6HR MAX TEMP:  49;

FLAGSTAFF      CLEAR     25  23  92 CALM      30.18R
6HR MIN TEMP:  25; 6HR MAX TEMP:  37;

PAYSON         PTCLDY    36  32  87 CALM      30.19R
PAGE           CLEAR     36  25  64 CALM      30.16S HAZE
6HR MIN TEMP:  36; 6HR MAX TEMP:  47;

$$

AZZ009>014-017-180700-
NORTHEAST ARIZONA

CITY           SKY/WX    TMP DP  RH WIND       PRES   REMARKS
WINSLOW        CLEAR     33  31  92 CALM      30.18R
6HR MIN TEMP:  32; 6HR MAX TEMP:  47;

SAINT JOHNS    CLOUDY    36  34  92 SW3       30.16R
6HR MIN TEMP:  33; 6HR MAX TEMP:  45;

SHOW LOW       MOCLDY    32  32 100 CALM      30.19R
$$

AZZ023-180700-
GREATER PHOENIX AREA

CITY           SKY/WX    TMP DP  RH WIND       PRES   REMARKS
PHOENIX        CLEAR     54  42  64 CALM      30.10R
6HR MIN TEMP:  53; 6HR MAX TEMP:  63;

BUCKEYE          N/A     45  45 100 NW6       30.12S
LUKE AFB       CLEAR     49  46  88 CALM      30.10R
6HR MIN TEMP:  49; 6HR MAX TEMP:  63;

DEER VALLEY    CLEAR     47  42  83 CALM      30.11R
6HR MIN TEMP:  47; 6HR MAX TEMP:  63;

SCOTTSDALE     CLEAR     49  42  77 NE5       30.13R
6HR MIN TEMP:  49; 6HR MAX TEMP:  63;

MESA-GATEWAY   PTCLDY    46  41  81 VRB5      30.12S
$$

AZZ027-028-180700-
SOUTHWEST MARICOPA COUNTY AND PINAL COUNTY

CITY           SKY/WX    TMP DP  RH WIND       PRES   REMARKS
CASA GRANDE    CLEAR     46  40  79 CALM      30.13R
6HR MIN TEMP:  46; 6HR MAX TEMP:  60;

$$

AZZ503-504-507>509-180700-
SOUTHEAST ARIZONA

CITY           SKY/WX    TMP DP  RH WIND       PRES   REMARKS
TUCSON         CLOUDY    53  45  74 CALM      30.15R
6HR MIN TEMP:  53; 6HR MAX TEMP:  61; 6HR PCP: TRACE;

DAVIS-MONTHAN  MOCLDY    51  46  83 CALM      30.14R
6HR MIN TEMP:  51; 6HR MAX TEMP:  59; 6HR PCP: TRACE;

NOGALES        CLEAR     39  34  82 E5        30.14S
6HR MIN TEMP:  39; 6HR MAX TEMP:  53;

SIERRA VISTA   CLEAR     42  35  76 SW6       30.16R
6HR MIN TEMP:  41; 6HR MAX TEMP:  53;

DOUGLAS        CLEAR     41  37  86 SE3       30.15R
6HR MIN TEMP:  40; 6HR MAX TEMP:  54; 6HR PCP:  0.01;

SAFFORD        CLOUDY    45  41  86 SE7       30.13R
6HR MIN TEMP:  44; 6HR MAX TEMP:  57;

$$

AZZ020-021-025-026-031-180700-
SOUTHWEST ARIZONA

CITY           SKY/WX    TMP DP  RH WIND       PRES   REMARKS
YUMA           CLEAR     52  30  43 CALM      30.11S
6HR MIN TEMP:  52; 6HR MAX TEMP:  66;

$$

CAZ031-033-041-043-047-048-061-180700-
SOUTHERN CALIFORNIA

CITY           SKY/WX    TMP DP  RH WIND       PRES   REMARKS
DOWNTOWN L.A.  CLEAR     53  49  86 CALM      30.15R
6HR MIN TEMP:  53; 6HR MAX TEMP:  64;

L.A. AIRPORT   PTCLDY    56  52  86 W13       30.16R
6HR MIN TEMP:  55; 6HR MAX TEMP:  60;

SAN DIEGO      PTCLDY    56  48  74 CALM      30.17R
6HR MIN TEMP:  56; 6HR MAX TEMP:  62;

BURBANK        CLEAR     51  37  58 W8        30.14R
6HR MIN TEMP:  50; 6HR MAX TEMP:  62;

ONTARIO        PTCLDY    50  40  68 VRB5      30.14R
6HR MIN TEMP:  50; 6HR MAX TEMP:  62;

RIVERSIDE      CLEAR     50  42  74 E3        30.15R
6HR MIN TEMP:  50; 6HR MAX TEMP:  65;

PALM SPRINGS   CLEAR     52  35  52 NW3       30.15R
6HR MIN TEMP:  51; 6HR MAX TEMP:  69;

EL CENTRO NAS  PTCLDY    51  34  52 CALM      30.14R
6HR MIN TEMP:  48; 6HR MAX TEMP:  67;

IMPERIAL       CLEAR     49  37  63 CALM      30.12R
6HR MIN TEMP:  49; 6HR MAX TEMP:  67;

BLYTHE         CLEAR     52  28  39 NW6       30.13R
6HR MIN TEMP:  50; 6HR MAX TEMP:  65;

NEEDLES        CLEAR     50  24  36 W8        30.13F
6HR MIN TEMP:  50; 6HR MAX TEMP:  63;

$$

NVZ020-UTZ003-180700-
SOUTHERN NEVADA-UTAH

CITY           SKY/WX    TMP DP  RH WIND       PRES   REMARKS
LAS VEGAS      CLEAR     44  25  47 S3        30.14S
6HR MIN TEMP:  44; 6HR MAX TEMP:  56;

SALT LAKE CITY PTCLDY    23  18  81 CALM      30.25S
6HR MIN TEMP:  22; 6HR MAX TEMP:  29;

$$

NMZ009-TXZ055-180700-
NEW MEXICO-WEST TEXAS

CITY           SKY/WX    TMP DP  RH WIND       PRES   REMARKS
ALBUQUERQUE    PTCLDY    37  33  85 S6        30.14R WCI  32
6HR MIN TEMP:  37; 6HR MAX TEMP:  47;

EL PASO        CLEAR     41  36  82 NE3       30.16R
6HR MIN TEMP:  41; 6HR MAX TEMP:  48;

$$


........................KEY........................
SKY/WX - SKY CONDITION/WEATHER
TMP    - TEMPERATURE IN FAHRENHEIT
DP     - DEW POINT IN FAHRENHEIT
RH     - RELATIVE HUMIDITY IN PERCENT
WIND   - DIRECTION AND SPEED IN MILES PER HOUR (MPH)
VRB    - VARIABLE WIND DIRECTION
PRES   - MEAN SEA LEVEL PRESSURE IN INCHES OF MERCURY
         F - FALLING PRESSURE   R - RISING PRESSURE
         S - STEADY PRESSURE
VSB    - VISIBILITY IN MILES
HX     - HEAT INDEX IN FAHRENHEIT
WCI    - WIND CHILL INDEX IN FAHRENHEIT
TC     - TEMPERATURE IN CELSIUS WHICH IS ALSO KNOWN AS
         TEMPERATURE IN CENTIGRADE
AFB    - AIR FORCE BASE
         LUKE AFB IS LUKE AIR FORCE BASE
         DAVIS-MONTHAN IS DAVIS-MONTHAN AIR FORCE BASE
NAS    - NAVAL AIR STATION
         EL CENTRO NAS IS EL CENTRO NAVAL AIR STATION
N/A    - NOT AVAILABLE





USA.gov is the U.S. government's official web portal to all federal, state and local government web resources and services.